Location: Medlow Airstrip Trail, Medlow Bath NSW 2780, Australia
(33.6682°S, 150.3233°E)
Time: 13:19:33
(UTC+10:00)

Envisat - Visible Passes

Search period start: 18 August 2019 00:00
Search period end: 28 August 2019 00:00
Orbit: 764 x 766 km, 98.1° (Epoch: 17 August)

Date Brightness Start Highest point End Pass type
(mag) Time Alt. Az. Time Alt. Az. Time Alt. Az.
18 Aug 4.9 05:35:08 10° NE 05:39:36 31° ESE 05:44:06 10° S visible
18 Aug 3.8 19:26:26 10° S 19:31:25 51° WSW 19:36:20 10° NNW visible
19 Aug 5.9 05:00:42 10° E 05:03:13 14° ESE 05:05:45 10° SE visible
19 Aug 2.9 18:49:36 10° SSE 18:54:44 67° ENE 18:59:47 10° N visible
19 Aug 5.9 20:31:02 10° SW 20:33:06 12° WSW 20:35:10 10° W visible
20 Aug 3.8 05:59:58 10° NNE 06:04:58 57° ESE 06:10:00 10° S visible
20 Aug 3.9 18:13:30 10° SE 18:17:51 27° E 18:22:09 10° NNE visible
20 Aug 4.9 19:52:24 10° SSW 19:56:45 28° WSW 20:01:04 10° NW visible
21 Aug 5.3 05:24:21 10° ENE 05:28:27 25° ESE 05:32:33 10° SSE visible
21 Aug 3.3 19:15:06 10° S 19:20:12 67° WSW 19:25:15 10° NNW visible
22 Aug 6.2 04:51:06 10° ESE 04:52:07 11° ESE 04:53:08 10° SE visible
22 Aug 3.1 18:38:27 10° SSE 18:43:28 51° E 18:48:23 10° N visible
22 Aug 5.7 20:18:56 10° SSW 20:22:00 16° WSW 20:25:02 10° WNW visible
23 Aug 4.3 05:48:56 10° NE 05:53:45 44° ESE 05:58:38 10° S visible
23 Aug 4.2 18:02:40 10° SE 18:06:32 21° E 18:10:21 10° NE visible
23 Aug 4.5 19:40:55 10° S 19:45:35 36° WSW 19:50:13 10° NW visible
24 Aug 5.7 05:13:43 10° ENE 05:17:18 20° ESE 05:20:54 10° SSE visible
24 Aug 3.0 19:03:49 10° SSE 19:08:59 86° WSW 19:14:04 10° NNW visible
25 Aug 3.4 18:27:23 10° SSE 18:32:11 39° E 18:36:55 10° NNE visible
25 Aug 5.4 20:07:09 10° SSW 20:10:52 20° WSW 20:14:33 10° WNW visible
26 Aug 4.8 05:38:00 10° NE 05:42:34 34° ESE 05:47:12 10° S visible
26 Aug 4.0 19:29:29 10° S 19:34:24 46° WSW 19:39:15 10° NW visible
27 Aug 5.9 05:03:18 10° E 05:06:11 15° ESE 05:09:04 10° SSE visible
27 Aug 2.9 18:52:35 10° SSE 18:57:44 74° ENE 19:02:48 10° N visible
27 Aug 6.1 20:34:35 10° SW 20:36:02 11° WSW 20:37:31 10° W visible
